Station BSBM4 - Big Sable Point, MI Image indicating link to RSS feed of recent meteorological observations for station BSBM4


Conditions at BSBM4 as of
(2:40 pm EDT)
1840 GMT on 04/16/2024:
     

Click on the graph icon in the table below to see a time series plot of the last five days of that observation.

5-day plot - Wind Direction Wind Direction (WDIR): E ( 80 deg true )
5-day plot - Wind Speed Wind Speed (WSPD): 12.0 kts
5-day plot - Wind Gust Wind Gust (GST): 17.1 kts
5-day plot - Atmospheric Pressure Atmospheric Pressure (PRES):30.06 in
5-day plot - Air Temperature Air Temperature (ATMP): 67.6 °F
5-day plot - Wind Speed at 10 Meters Wind Speed at 10 meters (WSPD10M): 11.7 kts
5-day plot - Wind Speed at 20 Meters Wind Speed at 20 meters (WSPD20M): 13.6 kts
5-day plot -  Wind Speed, Wind Gust and Atmospheric Pressure Combined plot of Wind Speed, Gust, and Air Pressure
Previous observations
TIME
(EDT)
5-day plot - Wind Direction
WDIR
 
5-day plot - Wind Speed
WSPD
kts
5-day plot - Wind Gust
GST
kts
5-day plot - Wave Height
WVHT
ft
5-day plot - Dominant Wave Period
DPD
sec
5-day plot - Average Wave Period
APD
sec
5-day plot - Mean Wave Direction
MWD
 
5-day plot - Atmospheric Pressure
PRES
in
5-day plot - Pressure Tendency
PTDY
in
5-day plot - Air Temperature
ATMP
°F
5-day plot - Water Temperature
WTMP
°F
5-day plot - Dew Point
DEWP
°F
5-day plot - Salinity
SAL
psu
5-day plot - Visibility
VIS
nmi
5-day plot - Tide (above MLLW)
TIDE
ft
2024-04-16 02:30 pmESE 12.0 17.1----30.07- 67.3-----
2024-04-16 02:20 pmESE 8.9 22.0----30.07- 67.1-----
2024-04-16 02:10 pm E 13.0 21.0----30.07- 66.6-----
2024-04-16 02:00 pm E 11.1 15.0----30.06-0.08 66.4-----
2024-04-16 01:50 pm E 11.1 20.0----30.07- 65.5-----
2024-04-16 01:40 pm E 11.1 20.0----30.07- 65.8-----
2024-04-16 01:30 pm E 14.0 19.0----30.08- 64.4-----
2024-04-16 01:20 pm E 11.1 21.0----30.09- 64.4-----
2024-04-16 01:10 pmESE 11.1 19.0----30.11- 63.0-----
2024-04-16 01:00 pmESE 9.9 17.1----30.12-0.04 63.9-----
2024-04-16 12:50 pm E 11.1 19.0----30.13- 63.0-----
2024-04-16 12:40 pm E 9.9 17.1----30.12- 61.7-----
2024-04-16 12:30 pm E 8.9 14.0----30.13- 60.4-----
2024-04-16 12:20 pmESE 11.1 17.1----30.13- 60.1-----
2024-04-16 12:10 pm E 12.0 18.1----30.14- 60.1-----
2024-04-16 12:00 pm E 11.1 17.1----30.14-0.03 59.0-----
2024-04-16 11:50 amESE 9.9 15.0----30.15- 59.5-----
2024-04-16 11:40 am E 11.1 19.0----30.14- 58.3-----
2024-04-16 11:30 am E 11.1 19.0----30.13- 57.7-----
2024-04-16 11:20 amESE 13.0 19.0----30.14- 56.8-----
2024-04-16 11:10 am E 13.0 21.0----30.15- 56.7-----
2024-04-16 11:00 am E 12.0 15.9----30.14-0.02 56.1-----
2024-04-16 10:50 amESE 11.1 15.9----30.15- 54.9-----
2024-04-16 10:40 amESE 11.1 15.0----30.15- 54.5-----
2024-04-16 10:30 am E 8.0 15.9----30.15- 53.8-----
2024-04-16 10:20 am E 11.1 18.1----30.16- 52.5-----
2024-04-16 10:10 amESE 8.9 17.1----30.16- 52.7-----
2024-04-16 10:00 am E 11.1 18.1----30.16+0.01 51.6-----
2024-04-16 09:50 amESE 8.9 15.0----30.16- 50.4-----
2024-04-16 09:40 am E 8.9 14.0----30.17- 49.8-----
2024-04-16 09:30 am E 7.0 14.0----30.17- 48.9-----
2024-04-16 09:20 amESE 8.9 13.0----30.17- 48.0-----
2024-04-16 09:10 am E 8.0 14.0----30.17- 46.9-----
2024-04-16 09:00 am E 8.9 15.0----30.17+0.04 46.2-----
2024-04-16 08:50 am E 12.0 15.0----30.16- 45.7-----
2024-04-16 08:40 am E 12.0 15.0----30.17- 45.5-----
2024-04-16 08:30 am E 9.9 17.1----30.16- 45.1-----
2024-04-16 08:20 am E 11.1 17.1----30.16- 44.6-----
2024-04-16 08:10 am E 11.1 14.0----30.17- 44.1-----
2024-04-16 08:00 am E 11.1 15.9----30.16+0.01 43.3-----
2024-04-16 07:50 am E 9.9 13.0----30.16- 43.2-----
2024-04-16 07:40 am E 11.1 14.0----30.16- 43.2-----
2024-04-16 07:30 am E 9.9 14.0----30.16- 43.3-----
2024-04-16 07:20 am E 9.9 14.0----30.16- 43.5-----
2024-04-16 07:10 am E 9.9 14.0----30.15- 43.3-----
2024-04-16 07:00 am E 11.1 14.0----30.15-0.01 43.5-----
2024-04-16 06:50 am E 8.9 15.0----30.15- 43.5-----
2024-04-16 06:40 am E 9.9 13.0----30.15- 43.7-----
2024-04-16 06:30 am E 8.9 17.1----30.14- 44.1-----
2024-04-16 06:20 am E 9.9 17.1----30.13- 44.6-----
2024-04-16 06:10 am E 11.1 20.0----30.13- 44.8-----
2024-04-16 06:00 am E 12.0 15.9----30.13-0.03 44.8-----
2024-04-16 05:50 am E 9.9 15.0----30.13- 44.8-----
2024-04-16 05:40 am E 11.1 17.1----30.13- 45.0-----
2024-04-16 05:30 am E 11.1 15.9----30.13- 45.1-----
2024-04-16 05:20 am E 12.0 15.9----30.14- 45.1-----
2024-04-16 05:10 am E 9.9 15.0----30.15- 44.8-----
2024-04-16 05:00 am E 11.1 14.0----30.15-0.01 44.4-----
2024-04-16 04:50 am E 8.9 13.0----30.16- 44.2-----
2024-04-16 04:40 am E 8.0 12.0----30.16- 44.1-----
2024-04-16 04:30 amENE 7.0 8.9----30.16- 43.3-----
2024-04-16 04:20 amENE 5.1 7.0----30.16- 43.0-----
2024-04-16 04:10 amENE 6.0 7.0----30.16- 43.0-----
2024-04-16 04:00 am NE 5.1 7.0----30.16+0.01 42.3-----
2024-04-16 03:50 am NE 5.1 7.0----30.16- 42.8-----
2024-04-16 03:40 am NE 6.0 7.0----30.16- 42.6-----
2024-04-16 03:30 am NE 4.1 6.0----30.16- 42.6-----
2024-04-16 03:20 am NE 5.1 6.0----30.16- 42.6-----
2024-04-16 03:10 amENE 5.1 6.0----30.16- 42.6-----
2024-04-16 03:00 amENE 5.1 5.1----30.16+0.03 42.6-----
2024-04-16 02:50 amENE 4.1 7.0----30.17- 43.2-----
2024-04-16 02:40 am NE 6.0 7.0----30.16- 43.5-----
2024-04-16 02:30 am NE 6.0 8.9----30.16- 43.7-----
2024-04-16 02:20 am NE 7.0 9.9----30.16- 44.4-----
2024-04-16 02:10 am NE 8.0 8.9----30.16- 44.8-----
2024-04-16 02:00 am NE 8.0 8.9----30.16+0.03 45.0-----
2024-04-16 01:50 am NE 7.0 8.0----30.15- 45.3-----
2024-04-16 01:40 am NE 6.0 8.0----30.15- 45.3-----
2024-04-16 01:30 am NE 6.0 8.0----30.15- 45.7-----
2024-04-16 01:20 am NE 5.1 7.0----30.15- 45.5-----
2024-04-16 01:10 amENE 5.1 8.0----30.15- 45.9-----
2024-04-16 01:00 am NE 5.1 8.0----30.15+0.03 46.0-----
2024-04-16 12:50 am NE 7.0 8.0----30.14- 46.6-----
2024-04-16 12:40 am NE 6.0 8.0----30.14- 46.6-----
2024-04-16 12:30 am NE 7.0 8.0----30.14- 46.9-----
2024-04-16 12:20 am NE 7.0 8.0----30.14- 47.3-----
2024-04-16 12:10 am NE 7.0 8.0----30.14- 47.5-----
2024-04-16 12:00 am NE 7.0 8.9----30.13+0.03 47.5-----
2024-04-15 11:50 pm NE 7.0 8.9----30.13- 47.5-----
2024-04-15 11:40 pm NE 8.0 9.9----30.13- 47.3-----
2024-04-15 11:30 pm NE 7.0 8.9----30.13- 47.3-----
2024-04-15 11:20 pm NE 8.0 8.0----30.13- 47.1-----
2024-04-15 11:10 pm NE 7.0 7.0----30.13- 46.8-----
2024-04-15 11:00 pmNNE 6.0 7.0----30.13+0.04 46.9-----
2024-04-15 10:50 pmNNE 6.0 7.0----30.13- 46.8-----
2024-04-15 10:40 pmNNE 5.1 8.0----30.13- 46.8-----
2024-04-15 10:30 pmNNE 7.0 8.0----30.12- 46.8-----
2024-04-15 10:20 pmNNE 6.0 7.0----30.12- 46.6-----
2024-04-15 10:10 pmNNE 4.1 6.0----30.12- 46.6-----
2024-04-15 10:00 pm NE 5.1 7.0----30.12+0.04 46.8-----
2024-04-15 09:50 pm NE 5.1 8.0----30.11- 46.9-----
2024-04-15 09:40 pm NE 6.0 12.0----30.11- 47.3-----
2024-04-15 09:30 pmNNE 9.9 12.0----30.10- 48.0-----
2024-04-15 09:20 pmNNE 8.0 11.1----30.10- 48.6-----
2024-04-15 09:10 pmNNE 7.0 11.1----30.10- 48.6-----
2024-04-15 09:00 pm N 8.0 12.0----30.10+0.02 49.3-----
2024-04-15 08:50 pm N 8.9 12.0----30.10- 50.0-----
2024-04-15 08:40 pmNNE 8.9 11.1----30.09- 50.5-----
2024-04-15 08:30 pmNNE 5.1 7.0----30.09- 50.2-----
2024-04-15 08:20 pm N 4.1 5.1----30.09- 50.5-----
2024-04-15 08:10 pm N 5.1 6.0----30.08- 52.3-----
2024-04-15 08:00 pm N 5.1 6.0----30.09+0.03 53.8-----
2024-04-15 07:50 pm N 4.1 5.1----30.08- 55.2-----
2024-04-15 07:40 pm N 4.1 6.0----30.08- 55.9-----
2024-04-15 07:30 pm N 4.1 6.0----30.08- 56.7-----
2024-04-15 07:20 pm N 5.1 6.0----30.09- 56.8-----
2024-04-15 07:10 pm N 5.1 8.0----30.08- 57.6-----
2024-04-15 07:00 pmNNE 6.0 8.0----30.08+0.03 57.2-----
2024-04-15 06:50 pmNNE 6.0 8.9----30.08- 57.2-----
2024-04-15 06:40 pmNNE 7.0 11.1----30.08- 56.8-----
2024-04-15 06:30 pmNNE 7.0 9.9----30.08- 56.5-----
2024-04-15 06:20 pmNNE 7.0 9.9----30.07- 57.4-----
2024-04-15 06:10 pmNNE 7.0 8.9----30.07- 57.2-----
2024-04-15 06:00 pm N 6.0 8.0----30.08+0.04 57.0-----
2024-04-15 05:50 pm N 5.1 7.0----30.07- 58.3-----
2024-04-15 05:40 pmNNW 4.1 6.0----30.07- 58.1-----
2024-04-15 05:30 pm NW 4.1 5.1----30.07- 57.2-----
2024-04-15 05:20 pmWNW 2.9 4.1----30.07- 56.5-----
2024-04-15 05:10 pmWSW 1.9 5.1----30.07- 55.8-----
2024-04-15 05:00 pmSSW 4.1 6.0----30.06+0.01 55.2-----
2024-04-15 04:50 pmSSW 5.1 6.0----30.06- 55.2-----
2024-04-15 04:40 pmSSW 5.1 6.0----30.06- 55.0-----
2024-04-15 04:30 pmSSW 5.1 6.0----30.05- 54.7-----
2024-04-15 04:20 pmSSW 5.1 6.0----30.05- 54.7-----
2024-04-15 04:10 pmSSW 5.1 7.0----30.05- 54.3-----
2024-04-15 04:00 pmSSW 4.1 6.0----30.05+0.01 54.1-----
2024-04-15 03:50 pm SW 5.1 6.0----30.05- 54.0-----
2024-04-15 03:40 pmSSW 4.1 5.1----30.05- 54.3-----
2024-04-15 03:30 pmSSW 5.1 6.0----30.05- 53.8-----
2024-04-15 03:20 pmSSW 4.1 5.1----30.05- 53.4-----
2024-04-15 03:10 pm SW 4.1 4.1----30.05- 54.1-----
2024-04-15 03:00 pm SW 2.9 2.9----30.04-0.01 55.0-----
2024-04-15 02:50 pm W 1.9 2.9----30.05- 55.0-----